Location: Ernsee
(50.8780°N, 12.0389°E)
Time: 16:55:04
(UTC+00:00)

EXPRESS MD2 - Pass Details

Date: 20 January 2020
Orbit: 262 x 4041 km, 49.9° (Epoch: 21 February)

Event Time Altitude Azimuth Distance (km) Brightness Sun altitude
Exits shadow 04:30:35 29° 118° (ESE) 707 4.4 -23.7°
Drops below altitude 10° 04:32:05 10° 91° (E) 1,232 6.2 -23.4°
Sets 04:33:42 0° 82° (E) 1,943 7.5 -23.2°
